Location: Iwkowa
(49.8210°N, 20.5761°E)
Time: 21:16:50
(UTC+01:00)

ISS - Pass Details

Date: 02 February 2019
Orbit: 403 x 411 km, 51.6° (Epoch: 21 February)

Event Time Altitude Azimuth Distance (km) Brightness Sun altitude
Rises 18:05:22 0° 282° (WNW) 2,337 1.4 -14.9°
Reaches altitude 10° 18:07:28 10° 285° (WNW) 1,477 0.1 -15.3°
Maximum altitude 18:10:46 67° 9° (N) 448 -3.8 -15.8°
Enters shadow 18:11:45 41° 77° (ENE) 614 -3.4 -16.0°
